Location: Unspecified
(0.0000°N, 0.0000°E)
Time: 14:06:48
(UTC+00:00)

Hubble Space Telescope - Pass Details

Date: 20 February 2019
Orbit: 536 x 540 km, 28.5° (Epoch: 23 August)

Event Time Altitude Azimuth Distance (km) Brightness Sun altitude
Rises 20:36:52 0° 288° (WNW) 2,673 5.1 -35.1°
Reaches altitude 10° 20:39:13 10° 280° (W) 1,783 4.1 -35.6°
Enters shadow 20:39:28 11° 279° (W) 1,692 3.9 -35.7°
